TimeEDT,TemperatureF,Dew PointF,Humidity,Sea Level PressureIn,VisibilityMPH,Wind Direction,Wind SpeedMPH,Gust SpeedMPH,PrecipitationIn,Events,Conditions,WindDirDegrees,DateUTC
12:53 AM,53.1,43.0,69,30.00,10.0,NW,11.5,-,N/A,,Overcast,320,2013-10-22 04:53:00
1:53 AM,48.9,43.0,80,30.03,10.0,NNW,9.2,-,0.01,Rain,Light Rain,330,2013-10-22 05:53:00
2:13 AM,48.2,42.8,82,30.04,6.0,NW,10.4,-,0.00,Rain,Light Rain,310,2013-10-22 06:13:00
2:38 AM,46.4,42.8,87,30.05,9.0,NW,9.2,-,0.01,Rain,Light Rain,310,2013-10-22 06:38:00
2:53 AM,46.9,42.1,83,30.05,10.0,NW,5.8,-,0.01,Rain,Light Rain,320,2013-10-22 06:53:00
3:53 AM,46.0,39.0,76,30.06,10.0,NNW,4.6,-,0.00,,Mostly Cloudy,330,2013-10-22 07:53:00
4:53 AM,43.0,37.0,80,30.05,10.0,North,3.5,-,N/A,,Clear,350,2013-10-22 08:53:00
5:53 AM,39.9,37.0,89,30.07,10.0,Calm,Calm,-,N/A,,Clear,0,2013-10-22 09:53:00
6:53 AM,39.0,37.0,93,30.07,10.0,Calm,Calm,-,N/A,,Clear,0,2013-10-22 10:53:00
7:53 AM,37.9,36.0,93,30.07,10.0,Calm,Calm,-,N/A,,Clear,0,2013-10-22 11:53:00
8:53 AM,41.0,37.9,89,30.08,10.0,Calm,Calm,-,N/A,,Clear,0,2013-10-22 12:53:00
9:53 AM,46.0,34.0,63,30.09,10.0,Calm,Calm,-,N/A,,Clear,0,2013-10-22 13:53:00
10:53 AM,48.0,30.0,50,30.08,10.0,Calm,Calm,-,N/A,,Clear,0,2013-10-22 14:53:00
11:53 AM,51.1,28.0,41,30.06,10.0,Calm,Calm,-,N/A,,Clear,0,2013-10-22 15:53:00
12:53 PM,51.1,28.9,43,30.04,10.0,West,4.6,-,N/A,,Clear,270,2013-10-22 16:53:00
1:53 PM,52.0,28.9,41,29.99,10.0,South,3.5,-,N/A,,Clear,190,2013-10-22 17:53:00
2:53 PM,54.0,28.0,37,29.96,10.0,Calm,Calm,-,N/A,,Clear,0,2013-10-22 18:53:00
3:53 PM,54.0,28.9,38,29.94,10.0,WSW,3.5,-,N/A,,Clear,240,2013-10-22 19:53:00
4:53 PM,54.0,28.9,38,29.91,10.0,Calm,Calm,-,N/A,,Clear,0,2013-10-22 20:53:00
5:53 PM,54.0,30.0,40,29.91,10.0,SSE,4.6,-,N/A,,Clear,160,2013-10-22 21:53:00
6:53 PM,54.0,30.9,41,29.89,10.0,Calm,Calm,-,N/A,,Scattered Clouds,0,2013-10-22 22:53:00
7:53 PM,53.1,34.0,48,29.89,10.0,Calm,Calm,-,N/A,,Overcast,0,2013-10-22 23:53:00
8:53 PM,52.0,35.1,53,29.88,10.0,Calm,Calm,-,N/A,,Mostly Cloudy,0,2013-10-23 00:53:00
9:53 PM,52.0,34.0,50,29.88,10.0,Calm,Calm,-,N/A,,Overcast,0,2013-10-23 01:53:00
10:53 PM,50.0,39.9,68,29.87,10.0,Calm,Calm,-,0.00,Rain,Light Rain,0,2013-10-23 02:53:00
11:53 PM,50.0,39.9,68,29.84,10.0,Calm,Calm,-,0.00,,Overcast,0,2013-10-23 03:53:00